"Pseudo-MPEC" for C03H821

Created 2019 Feb 13 5:18:23 UT using Find_Orb

Click here for an explanation of pseudo-MPECs

 
 Astrometry: 
     C03H821  C2019 02 12.22239 09 17 54.93 -01 43 26.3    ~2C63 18.4 GVNEOCP703
     C03H821  C2019 02 12.22770 09 17 59.07 -01 44 32.2    ~2C63 18.1 GVNEOCP703
     C03H821  C2019 02 12.23300 09 18 03.20 -01 45 37.5    ~2C63 18.3 GVNEOCP703
     C03H821  C2019 02 12.23831 09 18 07.15 -01 46 44.2    ~2C63 18.6 GVNEOCP703
     C03H821 KC2019 02 12.25824909 18 21.53 -01 51 47.9    ~2C6m 18.2 GVNEOCPV03
     C03H821 KC2019 02 12.26040309 18 23.06 -01 52 12.4    ~2C6m 18.1 GVNEOCPV03
     C03H821 KC2019 02 12.26256009 18 24.64 -01 52 37.8    ~2C6m 18.1 GVNEOCPV03
     C03H821 KC2019 02 12.27434909 18 32.89 -01 54 51.5    ~2C73 18.2 GVNEOCPV03
     C03H821 KC2019 02 12.27650009 18 34.36 -01 55 15.0    ~2C73 18.2 GVNEOCPV03
     C03H821 KC2019 02 12.27862509 18 35.84 -01 55 38.9    ~2C73 18.6 GVNEOCPV03
     C03H821  C2019 02 12.33416 09 19 10.16 -02 04 20.2    ~2C8I 18.3 GVNEOCPI52
     C03H821  C2019 02 12.33446 09 19 10.32 -02 04 23.2    ~2C8I 18.4 GVNEOCPI52
     C03H821  C2019 02 12.33476 09 19 10.51 -02 04 26.0    ~2C8I 18.4 GVNEOCPI52
     C03H821  C2019 02 12.33506 09 19 10.69 -02 04 29.2    ~2C8I 18.3 GVNEOCPI52
     C03H821 KC2019 02 12v%sf21m0\L$AstrometryNkYfCHaL,STgbaId]v:p([MlyKFD*fB474
     C03H821 KC2019 02 12w\Z8+xu\8kRN3l@+Ek,DPrf)4B[6HXr(qWZF9rlE6@3\:\,$\Ql?474
     C03H821 KC2019 02 12EBEy%=mw/8gOKJCD,)f?SX^+8Er..=PSZ)2Qv/`iwi:!28a;M[n+474
     C03H821 pC2019 02 12(i[5#dHT;1n*.]xcI7J?,w!redacted;\O.YHYd*y@YB3Y-[=p;YL01
     C03H821 KC2019 02 12mrk!+:4JD7#pA:^TH?q8gwZs5AfK^YwOZ\in,h_0,V+Gn`o31gKxL01
     C03H821 KC2019 02 12%eqn+^8SE9/fI:3=\PfIVdh;6vB(!ayW0^oH8n(Q#nT\qrr!^v1IL01
     C03H821 KC2019 02 12;1uLAZuirjK#mclicksW1/(*(]h$okvB_6k'+VWw6R@.Bkej?v!NL01
     C03H821 KC2019 02 121M0S2xm+UJR`osIk45]1k2iPB+21`uIrvHf[#6x/PG\yl!h(8Ss$K88
     C03H821 KC2019 02 12DP-n]ph?MX=\c?b0tP8f)ekCl.Y$RceeIp.hC@_Z)#Slg'vZmZE8K88
     C03H821 KC2019 02 12d(!*QK8sI22)i\bV=^60r\I2$-ZZJ[DR6(];tVd-BGI1]1gI$1v:K88
     C03H821 KC2019 02 12yJQQ:YhUTDta@AdQ%O?YRwjN7X]/.L-Pm_DL'SZLMuhereFI_x(hC95
     C03H821 KC2019 02 12+,nL20Z#s`*:dA`MjyKrhB4c6@2u^si1+TEH1b;ryD@hsQ;aMO$cC95
     C03H821 KC2019 02 12rI[=Km54bbjBa4bAW\Lrwy!VJGW1[*Zq!`ktSdInSe50!a\y:]UVC95
     C03H821 KC2019 02 12H!JaZo[;HdpS)+=+Fy^`\miIL-jq0k4for4-n)B/QBM!O1,l,kTl587
     C03H821 KC2019 02 12$n+h9?Fh+CQ6e%7;jw-`)S:uZo]QsK/A0wZ*y[r^X#tC\e8LbF2k587
     C03H821 KC2019 02 12dn\Mil$$P#9H;q5:bS5S!a`([s#88LNe;ujsKG2Nc)TRxp-++I^a587
     C03H821 KC2019 02 12_/r3Ohbsa4@tb]Wp6UfC`LFD3WB$:Hc#uPR=9K$'FRi)0_se%pLQ204
     C03H821 KC2019 02 12R;CoK[mP9tvl=ZV-g[Xm3urQexplanation#?rVZ;%R3%WHr.aF^204

Station data:
(204) Schiaparelli Observatory  (N45.867933 E8.770800)  Italy.  Observer L.
   Buzzi. 0.60-m f/4.64 Newtonian + CCD.
(474) Mount John Observatory, Lake Tekapo  (S43.987388 E170.464960)  New
   Zealand.  Observers A. C. Gilmore, P. M. Kilmartin. Measurer P. M.
   Kilmartin. 1.0-m f/7.7 reflector + CCD.
(587) Sormano  (N45.882949 E9.229180)  Italy.  Observers F. Manca, A. Testa.
   Measurer F. Manca. 0.5-m + CCD.
(703) Catalina Sky Survey  (N32.417006 W110.732640)  US/Arizona.  Observers
   B. M. Africano, E. J. Christensen, G. A. Farneth, D. C. Fuls, A. R. Gibbs,
   A. D. Grauer, H. Groeller, J. A. Johnson, R. A. Kowalski, S. M. Larson, G.
   J. Leonard, R. L. Seaman, F. C. Shelly. 0.68 m Schmidt + 10K CCD.
(C95) SATINO Remote Observatory, Haute Provence  (N43.932042 E5.712390)
   France.
(I52) Steward Observatory, Mt. Lemmon Station  (N32.442547 W110.788920)
   US/Arizona.  Observers B. M. Africano, E. J. Christensen, G. A. Farneth,
   D. C. Fuls, A. R. Gibbs, A. D. Grauer, H. Groeller, J. A. Johnson, R. A.
   Kowalski, S. M. Larson, G. J. Leonard, R. L. Seaman, F. C. Shelly. 1.0-m
   reflector + CCD.
(K88) GINOP-KHK, Piszkéstető  (N47.917622 E19.893600)  Hungary.  Observer K.
   Sárneczky. 0.60-m Schmidt + CCD.
(L01) Višnjan Observatory, Tičan  (N45.290900 E13.749300)  Croatia.
   Observers K. Korlević, E. Pettarin. Measurer E. Pettarin. 1.0-m f/2.9
   reflector + CCD.
(V03) Big Water  (N37.083379 W111.668600)  US/Utah.  Observer D. Rankin.
   0.30-m reflector + CCD.

Orbital elements:  C03H821
   Perihelion 2018 Dec 26.213638 +/- 0.00482 TT =  5:07:38 (JD 2458478.713638)
Epoch 2019 Feb 13.0 TT = JDT 2458527.5   Earth MOID: 0.0003   Ve: 0.0773
M  23.00606983 +/- 0.012            Ma: 0.0269                AutoNEOCP
n   0.47156764 +/- 0.000209         Peri.  104.93186 +/- 0.0029
a   1.63470747 +/- 0.000483         Node   322.04262 +/- 0.00036
e   0.5560790 +/- 0.000164          Incl.    8.78475 +/- 0.0023
P   2.09/763.40d           H 27.9   G  0.15   U  7.1  
q 0.72568081 +/- 5.76e-5    Q 2.54373413 +/- 0.00102
From 32 observations 2019 Feb. 12 (18.3 hr); mean residual 0".34
Residuals in arcseconds: 
190212 703  .26-  .38-    190212 I52  .27-  .27-    190212 K88  .22+  .40+    
190212 703  .28-  .41+    190212 I52  .11-  .09-    190212 K88  .17+  .36+    
190212 703  .81+  .91+    190212 I52  .09-  .32-    190212 C95  .07+  .01+    
190212 703  .17+  .65-    190212 474  .16+  .09-    190212 C95  .31+  .66-    
190212 V03  .19-  .12-    190212 474  .10+  .10+    190212 C95  .22-  .37-    
190212 V03  .45-  .32+    190212 474  .04-  .10+    190212 587  .28+  .51-    
190212 V03  .15+  .23-    190212 L01  1.1-  .15+    190212 587  .30+  .21+    
190212 V03  .07+  .11-    190212 L01  .49-  .24-    190212 587  .15+  .27-    
190212 V03  .06-  .44+    190212 L01  .04-  .01-    190212 204  .01-  .18+    
190212 V03  .36+  .19+    190212 L01  .24-  .47+    190212 204  .03+  .26+    
190212 I52  .01+  .25-    190212 K88  .22+  .10+    

Ephemerides (geocentric):
Date (UTC) HH   RA              Dec         delta   r     elong  mag " sig PA
---- -- -- --  -------------   -----------  ------ ------ -----  --- ---- ---
2019 02 13 05  09 26 34.133   -03 17 42.36  .01722 1.0037 162.6 20.0 .234 139
2019 02 13 06  09 26 45.138   -03 19 46.22  .01759 1.0040 162.5 20.0 .250 138
2019 02 13 07  09 26 55.686   -03 21 44.81  .01797 1.0044 162.5 20.1 .267 137
2019 02 13 08  09 27 05.806   -03 23 38.44  .01834 1.0048 162.5 20.1 .283 136
2019 02 13 09  09 27 15.523   -03 25 27.42  .01872 1.0051 162.5 20.2 .300 136
2019 02 13 10  09 27 24.861   -03 27 12.02  .01910 1.0055 162.5 20.2 .316 135
2019 02 13 11  09 27 33.842   -03 28 52.50  .01947 1.0059 162.5 20.3 .332 135
2019 02 13 12  09 27 42.487   -03 30 29.08  .01985 1.0062 162.4 20.3 .348 134
2019 02 13 13  09 27 50.813   -03 32 01.98  .02023 1.0066 162.4 20.4 .363 134
2019 02 13 14  09 27 58.840   -03 33 31.41  .02060 1.0070 162.4 20.4 .379 133
2019 02 13 15  09 28 06.582   -03 34 57.54  .02098 1.0073 162.4 20.4 .394 133
2019 02 13 16  09 28 14.054   -03 36 20.55  .02136 1.0077 162.4 20.5 .409 133
2019 02 13 17  09 28 21.272   -03 37 40.61  .02173 1.0081 162.4 20.5 .424 132
2019 02 13 18  09 28 28.247   -03 38 57.85  .02211 1.0084 162.4 20.6 .438 132
2019 02 13 19  09 28 34.992   -03 40 12.43  .02249 1.0088 162.4 20.6 .453 132
2019 02 13 20  09 28 41.519   -03 41 24.46  .02286 1.0092 162.4 20.6 .467 132
2019 02 13 21  09 28 47.837   -03 42 34.08  .02324 1.0095 162.3 20.7 .480 131
2019 02 13 22  09 28 53.957   -03 43 41.40  .02362 1.0099 162.3 20.7 .494 131
2019 02 13 23  09 28 59.889   -03 44 46.52  .02399 1.0103 162.3 20.7 .507 131
2019 02 14 00  09 29 05.640   -03 45 49.55  .02437 1.0106 162.3 20.8 .520 131
2019 02 14 01  09 29 11.220   -03 46 50.57  .02475 1.0110 162.3 20.8 .533 131
2019 02 14 02  09 29 16.636   -03 47 49.69  .02512 1.0114 162.3 20.8 .546 131
2019 02 14 03  09 29 21.894   -03 48 46.98  .02550 1.0117 162.3 20.9 .558 131
2019 02 14 04  09 29 27.003   -03 49 42.51  .02588 1.0121 162.3 20.9 .570 130
2019 02 14 05  09 29 31.969   -03 50 36.38  .02625 1.0125 162.3 20.9 .582 130
2019 02 14 06  09 29 36.797   -03 51 28.63  .02663 1.0128 162.3 21.0 .594 130
2019 02 14 07  09 29 41.494   -03 52 19.35  .02701 1.0132 162.3 21.0 .606 130
2019 02 14 08  09 29 46.064   -03 53 08.59  .02738 1.0136 162.3 21.0 .617 130
2019 02 14 09  09 29 50.513   -03 53 56.42  .02776 1.0139 162.3 21.1 .628 130
2019 02 14 10  09 29 54.847   -03 54 42.88  .02814 1.0143 162.3 21.1 .639 130
2019 02 14 11  09 29 59.069   -03 55 28.03  .02851 1.0147 162.3 21.1 .650 130
2019 02 14 12  09 30 03.183   -03 56 11.93  .02889 1.0150 162.2 21.1 .660 130
2019 02 14 13  09 30 07.195   -03 56 54.61  .02927 1.0154 162.2 21.2 .670 130
2019 02 14 14  09 30 11.108   -03 57 36.13  .02965 1.0158 162.2 21.2 .680 130
2019 02 14 15  09 30 14.925   -03 58 16.53  .03002 1.0161 162.2 21.2 .690 130
2019 02 14 16  09 30 18.651   -03 58 55.84  .03040 1.0165 162.2 21.3 .700 129
2019 02 14 17  09 30 22.288   -03 59 34.11  .03078 1.0169 162.2 21.3 .710 129
2019 02 14 18  09 30 25.840   -04 00 11.37  .03115 1.0172 162.2 21.3 .719 129
2019 02 14 19  09 30 29.310   -04 00 47.66  .03153 1.0176 162.2 21.3 .728 129
2019 02 14 20  09 30 32.701   -04 01 23.02  .03191 1.0180 162.2 21.4 .738 129
2019 02 14 21  09 30 36.016   -04 01 57.47  .03229 1.0183 162.2 21.4 .746 129
2019 02 14 22  09 30 39.257   -04 02 31.04  .03266 1.0187 162.2 21.4 .755 129
2019 02 14 23  09 30 42.427   -04 03 03.77  .03304 1.0191 162.2 21.4 .764 129
2019 02 15 00  09 30 45.528   -04 03 35.68  .03342 1.0194 162.2 21.5 .772 129
2019 02 15 01  09 30 48.562   -04 04 06.80  .03379 1.0198 162.2 21.5 .781 129
2019 02 15 02  09 30 51.533   -04 04 37.15  .03417 1.0202 162.2 21.5 .789 129
2019 02 15 03  09 30 54.441   -04 05 06.76  .03455 1.0206 162.2 21.5 .797 129
2019 02 15 04  09 30 57.290   -04 05 35.65  .03493 1.0209 162.2 21.6 .805 129